TimeEDT,TemperatureF,Dew PointF,Humidity,Sea Level PressureIn,VisibilityMPH,Wind Direction,Wind SpeedMPH,Gust SpeedMPH,PrecipitationIn,Events,Conditions,WindDirDegrees,DateUTC
12:53 AM,64.9,53.1,65,29.68,10.0,NNW,17.3,26.5,N/A,,Overcast,340,2013-06-14 04:53:00
1:53 AM,64.0,53.1,67,29.70,10.0,NNW,11.5,-,N/A,,Overcast,340,2013-06-14 05:53:00
2:53 AM,63.0,53.1,70,29.72,10.0,NNW,11.5,-,N/A,,Overcast,340,2013-06-14 06:53:00
3:53 AM,63.0,53.1,70,29.74,10.0,North,10.4,-,N/A,,Overcast,350,2013-06-14 07:53:00
4:53 AM,63.0,53.1,70,29.77,10.0,North,6.9,-,N/A,,Overcast,350,2013-06-14 08:53:00
5:53 AM,62.1,53.1,72,29.79,10.0,NNW,5.8,-,N/A,,Overcast,330,2013-06-14 09:53:00
6:53 AM,62.1,53.1,72,29.82,10.0,NW,9.2,-,N/A,,Overcast,310,2013-06-14 10:53:00
7:53 AM,64.0,53.1,67,29.84,10.0,NNW,12.7,-,N/A,,Mostly Cloudy,330,2013-06-14 11:53:00
8:53 AM,64.9,53.1,65,29.88,10.0,North,12.7,-,N/A,,Scattered Clouds,360,2013-06-14 12:53:00
9:53 AM,66.9,51.1,57,29.90,10.0,North,12.7,21.9,N/A,,Mostly Cloudy,10,2013-06-14 13:53:00
10:53 AM,69.1,51.1,53,29.92,10.0,NNE,9.2,-,N/A,,Scattered Clouds,20,2013-06-14 14:53:00
11:53 AM,71.1,51.1,49,29.92,10.0,North,13.8,-,N/A,,Partly Cloudy,350,2013-06-14 15:53:00
12:53 PM,73.0,54.0,51,29.92,10.0,NNW,10.4,-,N/A,,Mostly Cloudy,340,2013-06-14 16:53:00
1:53 PM,73.9,51.1,45,29.92,10.0,NW,12.7,-,N/A,,Scattered Clouds,320,2013-06-14 17:53:00
2:53 PM,77.0,50.0,39,29.92,10.0,NNW,9.2,-,N/A,,Clear,330,2013-06-14 18:53:00
3:53 PM,75.9,50.0,40,29.91,10.0,NNW,12.7,19.6,N/A,,Mostly Cloudy,330,2013-06-14 19:53:00
4:53 PM,77.0,51.1,40,29.91,10.0,NW,17.3,23.0,N/A,,Partly Cloudy,320,2013-06-14 20:53:00
5:53 PM,77.0,53.1,43,29.92,10.0,NW,12.7,-,N/A,,Partly Cloudy,320,2013-06-14 21:53:00
6:53 PM,75.9,52.0,43,29.93,10.0,NW,12.7,-,N/A,,Scattered Clouds,310,2013-06-14 22:53:00
7:53 PM,73.9,55.0,52,29.95,10.0,WNW,8.1,-,N/A,,Mostly Cloudy,300,2013-06-14 23:53:00
8:53 PM,70.0,55.9,61,29.96,10.0,WNW,5.8,-,N/A,,Partly Cloudy,300,2013-06-15 00:53:00
9:53 PM,68.0,55.0,63,29.98,10.0,NW,5.8,-,N/A,,Partly Cloudy,310,2013-06-15 01:53:00
10:53 PM,66.0,55.0,68,30.00,10.0,NW,4.6,-,N/A,,Clear,320,2013-06-15 02:53:00
11:53 PM,64.9,55.9,73,30.02,10.0,NW,5.8,-,N/A,,Clear,320,2013-06-15 03:53:00